When you browse on this site, cookies collect data to enhance your experience and personalize the content and advertising you see.
Visit our Privacy Policy to learn more. By continuing to use the site, you agree to this use of cookies and data.
  • In Belgium
  • List of Countries
  • For 7 days
  • Water Temperature
  • Satellite Maps
  • Weather Map
  • Weather Widgets
  • user-avatar
    Login

    Hourly Weather Asse

    Today, 21 February, Thursday

    Time Temperature Precipitation Wind Pressure Humidity
    00:00 +5°C° 0 mm 3 mps 765 mmHg 91%
    01:00 +5°C° 0 mm 3 mps 765 mmHg 91%
    02:00 +4°C° 0 mm 3 mps 765 mmHg 92%
    03:00 +4°C° 0 mm 3 mps 765 mmHg 92%
    04:00 +4°C° 0 mm 3 mps 765 mmHg 92%
    05:00 +4°C° 0 mm 3 mps 765 mmHg 93%
    06:00 +4°C° 0 mm 3 mps 765 mmHg 93%
    07:00 +5°C° 0 mm 3 mps 765 mmHg 90%
    08:00 +7°C° 0 mm 3 mps 766 mmHg 87%
    09:00 +7°C° 0 mm 4 mps 766 mmHg 83%
    10:00 +8°C° 0 mm 4 mps 766 mmHg 78%
    11:00 +11°C° 0 mm 3 mps 766 mmHg 73%
    12:00 +12°C° 0 mm 3 mps 766 mmHg 67%
    13:00 +12°C° 0 mm 3 mps 766 mmHg 66%
    14:00 +13°C° 0 mm 3 mps 766 mmHg 65%
    15:00 +13°C° 0 mm 3 mps 766 mmHg 64%
    16:00 +13°C° 0 mm 2 mps 767 mmHg 70%
    17:00 +12°C° 0 mm 2 mps 767 mmHg 76%
    18:00 +9°C° 0 mm 2 mps 767 mmHg 82%
    19:00 +9°C° 0 mm 2 mps 768 mmHg 84%
    20:00 +9°C° 0 mm 1 mps 768 mmHg 85%
    21:00 +9°C° 0 mm 1 mps 769 mmHg 87%
    22:00 +9°C° 0 mm 1 mps 769 mmHg 88%
    23:00 +8°C° 0 mm 1 mps 769 mmHg 88%

    Tomorrow, 22 February, Friday

    Time Temperature Precipitation Wind Pressure Humidity
    00:00 +8°C° 0 mm 1 mps 770 mmHg 89%
    01:00 +8°C° 0 mm 1 mps 770 mmHg 89%
    02:00 +8°C° 0 mm 1 mps 770 mmHg 89%
    03:00 +7°C° 0 mm 1 mps 770 mmHg 89%
    04:00 +7°C° 0 mm 1 mps 770 mmHg 89%
    05:00 +7°C° 0 mm 1 mps 771 mmHg 89%
    06:00 +7°C° 0 mm 1 mps 771 mmHg 89%
    07:00 +8°C° 0 mm 1 mps 771 mmHg 84%
    08:00 +8°C° 0 mm 0 mps 771 mmHg 80%
    09:00 +9°C° 0 mm 0 mps 772 mmHg 76%
    10:00 +10°C° 0 mm 0 mps 772 mmHg 71%
    11:00 +12°C° 0 mm 0 mps 772 mmHg 66%
    12:00 +14°C° 0 mm 0 mps 772 mmHg 61%
    13:00 +15°C° 0 mm 1 mps 772 mmHg 61%
    14:00 +15°C° 0 mm 1 mps 772 mmHg 61%
    15:00 +16°C° 0 mm 2 mps 772 mmHg 61%
    16:00 +15°C° 0 mm 2 mps 772 mmHg 68%
    17:00 +13°C° 0 mm 2 mps 772 mmHg 75%
    18:00 +12°C° 0 mm 2 mps 772 mmHg 83%
    19:00 +12°C° 0 mm 2 mps 773 mmHg 86%
    20:00 +10°C° 0 mm 2 mps 773 mmHg 89%
    21:00 +9°C° 0 mm 2 mps 773 mmHg 92%
    22:00 +9°C° 0 mm 2 mps 773 mmHg 92%
    23:00 +8°C° 0 mm 3 mps 773 mmHg 91%

    Day after tomorrow, 23 February, Saturday

    Time Temperature Precipitation Wind Pressure Humidity
    00:00 +8°C° 0 mm 3 mps 773 mmHg 91%
    01:00 +7°C° 0 mm 2 mps 773 mmHg 91%
    02:00 +7°C° 0 mm 2 mps 773 mmHg 91%
    03:00 +6°C° 0 mm 2 mps 772 mmHg 91%
    04:00 +6°C° 0 mm 2 mps 772 mmHg 91%
    05:00 +6°C° 0 mm 2 mps 772 mmHg 91%
    06:00 +6°C° 0 mm 2 mps 772 mmHg 90%
    07:00 +7°C° 0 mm 2 mps 772 mmHg 85%
    08:00 +8°C° 0 mm 3 mps 773 mmHg 80%
    09:00 +8°C° 0 mm 3 mps 773 mmHg 75%
    10:00 +10°C° 0 mm 3 mps 773 mmHg 68%
    11:00 +11°C° 0 mm 3 mps 773 mmHg 61%
    12:00 +13°C° 0 mm 3 mps 773 mmHg 55%
    13:00 +13°C° 0 mm 3 mps 772 mmHg 53%
    14:00 +14°C° 0 mm 3 mps 772 mmHg 51%
    15:00 +14°C° 0 mm 3 mps 772 mmHg 50%
    16:00 +13°C° 0 mm 3 mps 772 mmHg 53%
    17:00 +11°C° 0 mm 3 mps 772 mmHg 57%
    18:00 +10°C° 0 mm 3 mps 772 mmHg 60%
    19:00 +9°C° 0 mm 3 mps 773 mmHg 59%
    20:00 +9°C° 0 mm 3 mps 773 mmHg 58%
    21:00 +8°C° 0 mm 3 mps 773 mmHg 57%
    22:00 +7°C° 0 mm 3 mps 773 mmHg 55%
    23:00 +7°C° 0 mm 2 mps 773 mmHg 54%

    24 February, Sunday

    Time Temperature Precipitation Wind Pressure Humidity
    00:00 +6°C° 0 mm 2 mps 773 mmHg 52%
    01:00 +6°C° 0 mm 2 mps 773 mmHg 52%
    02:00 +5°C° 0 mm 2 mps 773 mmHg 51%
    03:00 +5°C° 0 mm 2 mps 773 mmHg 50%
    04:00 +5°C° 0 mm 2 mps 773 mmHg 51%
    05:00 +5°C° 0 mm 2 mps 773 mmHg 51%
    06:00 +4°C° 0 mm 2 mps 773 mmHg 51%
    07:00 +5°C° 0 mm 2 mps 773 mmHg 50%
    08:00 +7°C° 0 mm 2 mps 773 mmHg 49%
    09:00 +8°C° 0 mm 3 mps 773 mmHg 48%
    10:00 +9°C° 0 mm 3 mps 773 mmHg 46%
    11:00 +11°C° 0 mm 3 mps 773 mmHg 43%
    12:00 +13°C° 0 mm 3 mps 773 mmHg 41%
    13:00 +13°C° 0 mm 3 mps 773 mmHg 42%
    14:00 +14°C° 0 mm 3 mps 773 mmHg 43%
    15:00 +14°C° 0 mm 3 mps 773 mmHg 44%
    16:00 +13°C° 0 mm 3 mps 773 mmHg 48%
    17:00 +11°C° 0 mm 3 mps 773 mmHg 53%
    18:00 +10°C° 0 mm 3 mps 773 mmHg 57%
    19:00 +9°C° 0 mm 3 mps 773 mmHg 59%
    20:00 +9°C° 0 mm 3 mps 773 mmHg 61%
    21:00 +8°C° 0 mm 3 mps 774 mmHg 62%
    22:00 +8°C° 0 mm 2 mps 774 mmHg 63%
    23:00 +7°C° 0 mm 2 mps 774 mmHg 63%

    25 February, Monday

    Time Temperature Precipitation Wind Pressure Humidity
    00:00 +7°C° 0 mm 2 mps 774 mmHg 63%
    01:00 +7°C° 0 mm 2 mps 774 mmHg 63%
    02:00 +6°C° 0 mm 2 mps 774 mmHg 63%
    03:00 +7°C° 0 mm 1 mps 774 mmHg 63%
    04:00 +6°C° 0 mm 2 mps 774 mmHg 63%
    05:00 +6°C° 0 mm 2 mps 773 mmHg 63%
    06:00 +5°C° 0 mm 2 mps 773 mmHg 63%
    07:00 +7°C° 0 mm 2 mps 773 mmHg 61%
    08:00 +8°C° 0 mm 2 mps 773 mmHg 59%
    09:00 +9°C° 0 mm 2 mps 774 mmHg 58%
    10:00 +10°C° 0 mm 2 mps 774 mmHg 53%
    11:00 +13°C° 0 mm 2 mps 774 mmHg 49%
    12:00 +15°C° 0 mm 2 mps 774 mmHg 45%
    13:00 +15°C° 0 mm 2 mps 773 mmHg 45%
    14:00 +16°C° 0 mm 2 mps 773 mmHg 46%
    15:00 +16°C° 0 mm 2 mps 772 mmHg 46%
    16:00 +15°C° 0 mm 2 mps 772 mmHg 52%
    17:00 +13°C° 0 mm 2 mps 772 mmHg 57%
    18:00 +12°C° 0 mm 2 mps 772 mmHg 63%
    19:00 +10°C° 0 mm 2 mps 772 mmHg 66%
    20:00 +10°C° 0 mm 2 mps 772 mmHg 69%
    21:00 +9°C° 0 mm 2 mps 772 mmHg 72%
    22:00 +9°C° 0 mm 2 mps 772 mmHg 74%
    23:00 +9°C° 0 mm 2 mps 772 mmHg 75%

    26 February, Tuesday

    Time Temperature Precipitation Wind Pressure Humidity
    00:00 +8°C° 0 mm 2 mps 771 mmHg 77%
    01:00 +8°C° 0 mm 2 mps 771 mmHg 76%
    02:00 +8°C° 0 mm 1 mps 770 mmHg 74%
    03:00 +8°C° 0 mm 1 mps 770 mmHg 73%
    04:00 +7°C° 0 mm 1 mps 770 mmHg 73%
    05:00 +6°C° 0 mm 2 mps 770 mmHg 73%
    06:00 +6°C° 0 mm 2 mps 770 mmHg 72%
    07:00 +7°C° 0 mm 2 mps 769 mmHg 68%
    08:00 +8°C° 0 mm 2 mps 769 mmHg 64%
    09:00 +9°C° 0 mm 2 mps 769 mmHg 60%
    10:00 +12°C° 0 mm 2 mps 769 mmHg 52%
    11:00 +13°C° 0 mm 2 mps 768 mmHg 45%
    12:00 +15°C° 0 mm 2 mps 768 mmHg 38%
    13:00 +16°C° 0 mm 3 mps 767 mmHg 39%
    14:00 +16°C° 0 mm 3 mps 767 mmHg 40%
    15:00 +16°C° 0 mm 3 mps 766 mmHg 41%
    16:00 +14°C° 0 mm 3 mps 766 mmHg 46%
    17:00 +12°C° 0 mm 3 mps 766 mmHg 52%
    18:00 +11°C° 0 mm 3 mps 765 mmHg 57%
    19:00 +10°C° 0 mm 3 mps 765 mmHg 59%
    20:00 +9°C° 0 mm 2 mps 765 mmHg 61%
    21:00 +9°C° 0 mm 2 mps 765 mmHg 62%
    22:00 +8°C° 0 mm 2 mps 765 mmHg 62%
    23:00 +8°C° 0 mm 2 mps 764 mmHg 62%
    Show more